Weather History for Rochester, NH

Change the Weather History Date:

Wednesday, January 22, 2014

  Actual Average (KSFM) Record (KSFM)
Temperature  
Mean Temperature 10 °F -  
Max Temperature 18 °F 26 °F 48 °F (1997)
Min Temperature 1 °F 7 °F -20 °F (2005)
Degree Days  
Heating Degree Days 56    
Moisture  
Dew Point -8 °F    
Average Humidity 48    
Maximum Humidity 66    
Minimum Humidity 35    
Precipitation  
Precipitation 0.00 in - - ()
Sea Level Pressure  
Sea Level Pressure 29.76 in    
Wind  
Wind Speed 12 mph (NNW)    
Max Wind Speed 18 mph    
Max Gust Speed 25 mph    
Visibility 10 miles    
Events      
Averages and records for this station are not official NWS values.
T = Trace of Precipitation, MM = Missing Value Source: NWS Daily Summary

Daily Weather History Graph

Daily Weather History Graph

Search for Another Location

Airport:

Trip Planner

Search our weather history database for the weather conditions in past years. The results will help you decide how hot, cold, wet, or windy it might be!

Date:

Astronomy

Jan. 22, 2014 Rise Set
Actual Time 7:08 AM EST 4:42 PM EST
Civil Twilight 6:37 AM EST 5:13 PM EST
Nautical Twilight 6:02 AM EST 5:48 PM EST
Astronomical Twilight 5:28 AM EST 6:22 PM EST
Moon 11:24 PM EST (1/22) 9:56 AM EST (1/22)
Length of Visible Light 10h 36m
Length of Day
9h 33m
Waning Gibbous, 65% of the Moon is Illuminated
Jan 22
Waning Gibbous
Jan 24
Last Quarter
Jan 30
New
Feb 6
First Quarter
Feb 14
Full

Hourly Weather History & Observations

Time (EST) Temp. Windchill Dew Point Humidity Pressure Visibility Wind Dir Wind Speed Gust Speed Precip Events Conditions
12:51 AM 8.1 °F -9.6 °F -7.1 °F 50% 29.86 in 10.0 mi North 16.1 mph 20.7 mph N/A   Overcast
1:51 AM 7.0 °F -9.1 °F -8.0 °F 51% 29.84 in 10.0 mi North 12.7 mph 19.6 mph N/A   Overcast
2:51 AM 7.0 °F -7.5 °F -8.0 °F 51% 29.83 in 10.0 mi North 10.4 mph 19.6 mph N/A   Overcast
3:51 AM 6.1 °F -10.2 °F -9.0 °F 50% 29.83 in 10.0 mi North 12.7 mph - N/A   Clear
4:51 AM 5.0 °F -10.8 °F -9.0 °F 52% 29.81 in 10.0 mi North 11.5 mph 18.4 mph N/A   Clear
5:51 AM 5.0 °F -9.1 °F -9.9 °F 50% 29.81 in 10.0 mi North 9.2 mph - N/A   Clear
6:51 AM 3.9 °F -12.2 °F -9.9 °F 53% 29.80 in 10.0 mi North 11.5 mph 20.7 mph N/A   Mostly Cloudy
7:51 AM 3.9 °F -13.7 °F -9.9 °F 53% 29.79 in 10.0 mi North 13.8 mph - N/A   Overcast
8:51 AM 6.1 °F -11.6 °F -9.9 °F 48% 29.76 in 10.0 mi North 15.0 mph 24.2 mph N/A   Clear
9:51 AM 8.1 °F -6.2 °F -9.0 °F 46% 29.74 in 10.0 mi North 10.4 mph 23.0 mph N/A   Clear
10:51 AM 10.0 °F -8.1 °F -8.0 °F 44% 29.70 in 10.0 mi North 18.4 mph 25.3 mph N/A   Clear
11:51 AM 14.0 °F -0.8 °F -7.1 °F 39% 29.63 in 10.0 mi North 13.8 mph 20.7 mph N/A   Clear
12:51 PM 17.1 °F 1.5 °F -6.0 °F 36% 29.62 in 10.0 mi NNW 17.3 mph 25.3 mph N/A   Clear
1:51 PM 18.0 °F 3.6 °F -6.0 °F 35% 29.61 in 10.0 mi North 15.0 mph 23.0 mph N/A   Clear
2:51 PM 17.1 °F 5.0 °F -5.1 °F 37% 29.65 in 10.0 mi WNW 10.4 mph - N/A   Clear
3:51 PM 17.1 °F 5.0 °F -4.0 °F 39% 29.67 in 10.0 mi WNW 10.4 mph - N/A   Clear
4:51 PM 15.1 °F 3.3 °F -5.1 °F 41% 29.70 in 10.0 mi WNW 9.2 mph - N/A   Clear
5:51 PM 10.9 °F 0.2 °F -7.1 °F 44% 29.71 in 10.0 mi WNW 6.9 mph - N/A   Clear
6:51 PM 9.0 °F -3.2 °F -7.1 °F 48% 29.73 in 10.0 mi WNW 8.1 mph - N/A   Clear
7:51 PM 7.0 °F -3.3 °F -8.0 °F 51% 29.76 in 10.0 mi WNW 5.8 mph - N/A   Clear
8:51 PM 6.1 °F -5.6 °F -8.0 °F 53% 29.79 in 10.0 mi WNW 6.9 mph - N/A   Clear
9:51 PM 5.0 °F -5.6 °F -8.0 °F 55% 29.81 in 10.0 mi WNW 5.8 mph - N/A   Clear
10:51 PM 1.9 °F - -9.0 °F 60% 29.83 in 10.0 mi Calm Calm - N/A   Clear
11:51 PM 1.0 °F - -8.0 °F 66% 29.84 in 10.0 mi Calm Calm - N/A   Clear